Regional Weather Roundup
Issued by NWS Sioux Falls, SD

Home | Current Version | Previous Version | Graphics & Text | Print | Product List | Glossary Off
Versions: 1 2 3 4 5 6 7 8 9 10 11 12 13 14 15 16 17 18 19 20 21 22 23 24 25 26 27 28 29 30 31 32 33 34 35 36 37 38 39 40 41 42 43 44 45 46 47 48 49 50

500
ASUS43 KFSD 070802
RWRFSD

WEATHER ROUNDUP FOR SE SOUTH DAKOTA/SW MINNESOTA/NW IOWA
NATIONAL WEATHER SERVICE SIOUX FALLS SD
200 AM CST WED DEC 07 2016

NOTE: "FAIR" INDICATES FEW OR NO CLOUDS BELOW 12,000 FEET WITH NO
SIGNIFICANT WEATHER AND OR OBSTRUCTIONS TO VISIBILITY.


SDZ038>040-050-052>070-070900-
SOUTHEAST SOUTH DAKOTA

CITY           SKY/WX    TMP DP  RH WIND       PRES   REMARKS
CHAMBERLAIN    CLEAR     10   3  73 W22G29    30.15F WCI -10
HURON          CLEAR      7   1  76 W20G25    30.12R WCI -13
MADISON        PTSUNNY    7   1  78 NW24G32   30.04R WCI -15
MITCHELL       CLEAR     10   2  69 W18       30.16R WCI  -8
SIOUX FALLS    CLEAR     11   4  73 W24G32    30.08R WCI  -9
WINNER         FAIR       9   1  70 NW15      30.18R WCI  -8
YANKTON        CLOUDY    12   3  67 W14       30.16S WCI  -3
$$

MNZ071-072-080-081-089-090-097-098-070900-
SOUTHWEST MINNESOTA

CITY           SKY/WX    TMP DP  RH WIND       PRES   REMARKS
FAIRMONT       CLEAR     13   7  77 W23       30.01R WCI  -6
JACKSON        CLEAR     12   5  73 W24G30    29.99R WCI  -8
LUVERNE        CLEAR     10   5  79 W21G26    30.06R WCI  -9
MARSHALL       CLEAR     12   5  73 W24       29.98R WCI  -8
MONTEVIDEO     CLOUDY    14   7  73 NW16G26   29.97R WCI  -2
PIPESTONE      CLEAR      9   3  78 W18G28    30.00R WCI -10
REDWOOD FALLS  CLEAR     13   5  70 W20G28    29.96R WCI  -5
TRACY          CLEAR     13   7  79 W15G22    29.98R WCI  -3
WINDOM         CLEAR     12   7  79 W21       29.98R WCI  -6
WORTHINGTON    FLURRIES  10   5  80 W17       30.01S WCI  -8
$$

IAZ001>003-012>014-020>022-031-032-NEZ013-014-SDZ071-070900-
NORTHWEST IOWA

CITY           SKY/WX    TMP DP  RH WIND       PRES   REMARKS
CHEROKEE       PTCLDY    14   8  78 W16       30.11S WCI  -2
DENISON        CLOUDY    16   9  73 W9G21     30.14R WCI   4
ESTHERVILLE    CLEAR     12   7  80 W21G26    30.02R WCI  -7
LE MARS        CLOUDY    14   7  73 W13G23    30.14S WCI   0
ORANGE CITY    CLEAR     12   9  85 W22G29    30.08S WCI  -7
SHELDON        PTCLDY    12   7  79 W22G30    30.07R WCI  -7
SIOUX CITY     CLOUDY    17   7  64 W15       30.16S WCI   2
SPENCER        CLEAR     12   6  77 W23G37    30.06R WCI  -7
STORM LAKE     CLOUDY    12   9  85 W28       30.07R WCI  -9
$$

ABBREVIATIONS USED IN REMARKS
   TC - TEMPERATURE IN CELSIUS
  WCI - WIND CHILL INDEX
   HX - HEAT INDEX
  VSB - VISIBILITY





USA.gov is the U.S. government's official web portal to all federal, state and local government web resources and services.